This demonstration page uses our WeatherBlox Daily Observations layout. Learn more.

Hourly Observations for February 7, 2019

Temp ( °F °C ) Dew Point ( °F °C ) Humidity (%) Winds ( mph kmh ) Pressure ( in mb ) Visibility ( mi km ) Precip ( " mm )
12:28 am 00:28 Windy with Snow Likely 8 -13.3 2 -16.7 76 76 NNW 21 33 30.18 1022 2.5 4.02335 0 0.0254
12:37 am 00:37 Windy with Snow Likely 8 -13.3 3 -16.1 80 80 NNW 20 31 30.19 1022 3 4.82802 0 0.0254
12:54 am 00:54 Windy with Snow Likely 8 -13.3 1 -17.2 73 73 NNW 23 37 30.15 1021 4 6.43736 0 0.0254
1:54 am 01:54 Cloudy 7 -13.9 0 -17.8 73 73 N 21 33 30.14 1021 8 12.87472 0 0.0254
2:54 am 02:54 Windy with Snow Likely 7 -13.9 0 -17.8 73 73 NNW 21 33 30.11 1020 8 12.87472 0 0.0254
3:54 am 03:54 Windy with Snow Likely 7 -13.9 0 -17.8 73 73 NNW 22 35 30.15 1021 5 8.0467 0 0.0254
4:54 am 04:54 Cloudy with Light Snow 6 -14.4 0 -17.8 76 76 NNW 15 24 30.15 1021 3 4.82802 0 0.0254
5:24 am 05:24 Cloudy with Light Snow 6 -14.4 0 -17.8 76 76 NNW 16 26 30.22 1023 3 4.82802 0 0.0254
5:38 am 05:38 Windy with Snow Likely 6 -14.4 0 -17.8 76 76 NNW 20 31 30.22 1023 3 4.82802 0 0.0254
5:41 am 05:41 Cloudy with Light Snow 6 -14.4 0 -17.8 76 76 NNW 16 26 30.22 1023 2.5 4.02335 0 0.0254
5:52 am 05:52 Windy with Snow Likely 7 -14 0 -18 72 72 NNW 22 35 30.22 1023 2.5 4.02335 0 0.0254
5:54 am 05:54 Windy with Snow Likely 6 -14.4 -1 -18.3 73 73 NNW 22 35 30.16 1021 3 4.82802 0 0.0254
6:54 am 06:54 Cloudy 5 -15 -3 -19.4 69 69 NNW 25 41 30.18 1022 7 11.26538 0 0.0254
7:54 am 07:54 Cloudy 5 -15 -4 -20 66 66 NW 20 31 30.2 1023 9 14.48406 0 0
8:54 am 08:54 Windy with Snow Likely 5 -15 -4 -20 66 66 NW 20 31 30.22 1024 7 11.26538 0 0.0254
9:54 am 09:54 Cloudy 6 -14.4 -5 -20.6 60 60 NW 22 35 30.23 1024 10 16.0934 0 0.0254
10:54 am 10:54 Mostly Sunny 8 -13.3 -5 -20.6 55 55 NW 24 39 30.25 1024 10 16.0934 0 0
11:54 am 11:54 Mostly Sunny 9 -12.8 -3 -19.4 58 58 NW 21 33 30.27 1025 10 16.0934 0 0
12:54 pm 12:54 Partly Cloudy 10 -12.2 -4 -20 53 53 NW 23 37 30.28 1025 10 16.0934 0 0
1:01 pm 13:01 Mostly Cloudy 11 -11.7 -3 -19.4 53 53 NW 18 30 30.33 1027 10 16.0934 0 0
1:09 pm 13:09 Partly Cloudy 10 -12.2 -3 -19.4 55 55 NW 25 41 30.33 1027 10 16.0934 0 0
1:54 pm 13:54 Mostly Cloudy 12 -11.1 -2 -18.9 53 53 WNW 22 35 30.29 1026 10 16.0934 0 0
2:54 pm 14:54 Mostly Cloudy 13 -10.6 -3 -19.4 49 49 NW 23 37 30.3 1026 10 16.0934 0 0
3:54 pm 15:54 Partly Cloudy 13 -10.6 -2 -18.9 51 51 NW 20 31 30.34 1027 10 16.0934 0 0
4:54 pm 16:54 Mostly Sunny 11 -11.7 -4 -20 51 51 NW 22 35 30.37 1028 10 16.0934 0 0
5:54 pm 17:54 Clear 9 -12.8 -5 -20.6 52 52 NW 21 33 30.4 1030 10 16.0934 0 0
6:54 pm 18:54 Clear 8 -13.3 -5 -20.6 55 55 NW 15 24 30.45 1031 10 16.0934 0 0
7:54 pm 19:54 Clear 7 -13.9 -7 -21.7 52 52 NW 17 28 30.49 1032 10 16.0934 0 0
8:54 pm 20:54 Clear 6 -14.4 -6 -21.1 57 57 NW 18 30 30.5 1033 10 16.0934 0 0
9:54 pm 21:54 Clear 6 -14.4 -7 -21.7 54 54 NW 15 24 30.52 1034 10 16.0934 0 0
10:54 pm 22:54 Clear 5 -15 -7 -21.7 57 57 NW 12 19 30.55 1034 10 16.0934 0 0
11:54 pm 23:54 Clear 4 -15.6 -7 -21.7 60 60 NW 12 19 30.56 1035 10 16.0934 0 0

Powered by AerisWeather